Weather History for KLRU - October, 2014

Change the Weather History Date:

Thursday, October 9, 2014

  Actual Average Record
Temperature  
Mean Temperature 70 °F -  
Max Temperature 81 °F 76 °F 87 °F (1996)
Min Temperature 59 °F 53 °F 37 °F (2000)
Cooling Degree Days 5    
Growing Degree Days 20 (Base 50)    
Moisture  
Dew Point 52 °F    
Average Humidity 56    
Maximum Humidity 81    
Minimum Humidity 26    
Precipitation  
Precipitation 0.00 in - - ()
Sea Level Pressure  
Sea Level Pressure 30.00 in    
Wind  
Wind Speed 8 mph (West)    
Max Wind Speed 22 mph    
Max Gust Speed 28 mph    
Visibility 10 miles    
Events      
Averages and records for this station are not official NWS values.
T = Trace of Precipitation, MM = Missing Value Source: NWS Daily Summary

Daily Weather History Graph

Daily Weather History Graph

Search for Another Location

Airport or City:

Trip Planner

Search our weather history database for the weather conditions in past years. The results will help you decide how hot, cold, wet, or windy it might be!

Date:

Astronomy

Oct. 09, 2014 Rise Set
Actual Time 7:07 AM MDT 6:42 PM MDT
Civil Twilight 6:42 AM MDT 7:06 PM MDT
Nautical Twilight 6:14 AM MDT 7:35 PM MDT
Astronomical Twilight 5:45 AM MDT 8:03 PM MDT
Moon 7:46 PM MDT (10/9) 8:20 AM MDT (10/9)
Length of Visible Light 12h 24m
Length of Day
11h 35m
Full, 98% of the Moon is Illuminated
Oct 9
Full
Oct 15
Last Quarter
Oct 23
New
Oct 30
First Quarter
Nov 6
Full

Hourly Weather History & Observations

Time (MDT) Temp. Heat Index Dew Point Humidity Pressure Visibility Wind Dir Wind Speed Gust Speed Precip Events Conditions
12:15 AM 68.0 °F - 54.5 °F 62% 30.01 in 10.0 mi WNW 11.5 mph - N/A   Mostly Cloudy
12:35 AM 68.5 °F - 53.6 °F 59% 30.01 in 10.0 mi NW 6.9 mph - N/A   Overcast
12:55 AM 67.3 °F - 54.5 °F 63% 30.02 in 10.0 mi NNE 3.5 mph - N/A   Overcast
1:15 AM 66.9 °F - 56.1 °F 68% 30.03 in 10.0 mi Calm Calm - N/A   Overcast
1:35 AM 66.2 °F - 56.7 °F 71% 30.03 in 10.0 mi Calm Calm - N/A   Overcast
1:55 AM 67.5 °F - 53.4 °F 61% 30.03 in 10.0 mi WNW 9.2 mph 17.3 mph N/A   Overcast
2:15 AM 66.4 °F - 52.3 °F 61% 30.03 in 10.0 mi WNW 8.1 mph - N/A   Overcast
2:35 AM 65.3 °F - 52.0 °F 62% 30.03 in 10.0 mi West 10.4 mph - N/A   Mostly Cloudy
2:55 AM 64.2 °F - 50.9 °F 62% 30.03 in 10.0 mi West 6.9 mph - N/A   Scattered Clouds
3:15 AM 63.9 °F - 50.0 °F 61% 30.01 in 10.0 mi West 9.2 mph - N/A   Clear
3:35 AM 62.8 °F - 50.2 °F 63% 29.99 in 10.0 mi Calm Calm - N/A   Clear
3:55 AM 61.9 °F - 50.5 °F 66% 29.99 in 10.0 mi NW 3.5 mph - N/A   Scattered Clouds
4:15 AM 61.5 °F - 51.6 °F 70% 29.99 in 10.0 mi NNW 4.6 mph - N/A   Scattered Clouds
4:35 AM 60.4 °F - 52.3 °F 75% 30.00 in 10.0 mi WNW 4.6 mph - N/A   Clear
4:55 AM 61.0 °F - 52.3 °F 73% 29.99 in 10.0 mi West 6.9 mph - N/A   Clear
5:15 AM 60.8 °F - 52.7 °F 75% 30.00 in 10.0 mi West 5.8 mph - N/A   Clear
5:35 AM 60.8 °F - 53.2 °F 76% 30.00 in 10.0 mi WSW 3.5 mph - N/A   Clear
5:55 AM 61.5 °F - 53.8 °F 76% 30.00 in 10.0 mi WSW 6.9 mph - N/A   Clear
6:15 AM 60.8 °F - 53.6 °F 77% 30.01 in 10.0 mi West 6.9 mph - N/A   Clear
6:35 AM 60.3 °F - 53.8 °F 79% 30.01 in 10.0 mi WSW 4.6 mph - N/A   Clear
6:55 AM 59.4 °F - 53.6 °F 81% 30.02 in 10.0 mi West 4.6 mph - N/A   Clear
7:15 AM 59.9 °F - 53.8 °F 80% 30.03 in 10.0 mi West 3.5 mph - N/A   Scattered Clouds
7:35 AM 60.1 °F - 54.0 °F 80% 30.03 in 10.0 mi Calm Calm - N/A   Clear
7:55 AM 61.5 °F - 54.7 °F 78% 30.04 in 10.0 mi West 4.6 mph - N/A   Clear
8:15 AM 63.0 °F - 55.6 °F 77% 30.04 in 10.0 mi West 6.9 mph - N/A   Clear
8:35 AM 64.8 °F - 56.3 °F 74% 30.04 in 10.0 mi West 6.9 mph - N/A   Clear
8:55 AM 65.3 °F - 56.3 °F 73% 30.04 in 10.0 mi West 6.9 mph - N/A   Clear
9:15 AM 66.9 °F - 56.7 °F 70% 30.05 in 10.0 mi West 6.9 mph - N/A   Clear
9:35 AM 67.3 °F - 56.5 °F 68% 30.05 in 10.0 mi WSW 8.1 mph - N/A   Clear
9:55 AM 68.0 °F - 56.5 °F 67% 30.05 in 10.0 mi WSW 4.6 mph - N/A   Clear
10:15 AM 69.3 °F - 56.5 °F 64% 30.05 in 10.0 mi SW 5.8 mph - N/A   Scattered Clouds
10:35 AM 71.1 °F - 56.5 °F 60% 30.05 in 10.0 mi SSW 5.8 mph - N/A   Scattered Clouds
10:55 AM 71.8 °F - 56.3 °F 58% 30.05 in 10.0 mi SSW 8.1 mph - N/A   Scattered Clouds
11:15 AM 73.8 °F - 55.9 °F 54% 30.04 in 10.0 mi SSW 10.4 mph - N/A   Scattered Clouds
11:35 AM 74.1 °F - 55.9 °F 53% 30.04 in 10.0 mi SSW 9.2 mph - N/A   Scattered Clouds
11:55 AM 73.9 °F - 55.6 °F 53% 30.03 in 10.0 mi SSW 12.7 mph - N/A   Scattered Clouds
12:15 PM 76.1 °F - 55.2 °F 48% 30.03 in 10.0 mi SW 13.8 mph 18.4 mph N/A   Mostly Cloudy
12:55 PM 78.1 °F - 53.4 °F 42% 30.01 in 10.0 mi WSW 11.5 mph 19.6 mph N/A   Mostly Cloudy
1:15 PM 78.8 °F - 53.8 °F 42% 30.00 in 10.0 mi WSW 13.8 mph 19.6 mph N/A   Scattered Clouds
1:35 PM 79.7 °F - 52.5 °F 39% 29.99 in 10.0 mi SW 15.0 mph 23.0 mph N/A   Scattered Clouds
1:55 PM 78.4 °F - 53.6 °F 42% 29.98 in 10.0 mi SW 13.8 mph - N/A   Scattered Clouds
2:15 PM 79.2 °F - 53.6 °F 41% 29.97 in 10.0 mi SSW 8.1 mph 19.6 mph N/A   Scattered Clouds
2:35 PM 80.8 °F 80.4 °F 53.4 °F 39% 29.96 in 10.0 mi WSW 13.8 mph 19.6 mph N/A   Mostly Cloudy
2:55 PM 80.6 °F - 50.5 °F 35% 29.95 in 10.0 mi WSW 15.0 mph 21.9 mph N/A   Scattered Clouds
3:15 PM 80.1 °F - 49.5 °F 34% 29.95 in 10.0 mi West 21.9 mph 27.6 mph N/A   Scattered Clouds
3:35 PM 80.4 °F - 49.6 °F 34% 29.95 in 10.0 mi WSW 17.3 mph - N/A   Scattered Clouds
3:55 PM 81.1 °F - 48.7 °F 32% 29.95 in 10.0 mi West 12.7 mph 24.2 mph N/A   Scattered Clouds
4:15 PM 79.9 °F - 47.5 °F 32% 29.95 in 10.0 mi WSW 18.4 mph 24.2 mph N/A   Clear
4:35 PM 78.4 °F - 47.1 °F 33% 29.94 in 10.0 mi WSW 17.3 mph 25.3 mph N/A   Clear
4:55 PM 79.5 °F - 46.4 °F 31% 29.94 in 10.0 mi WSW 18.4 mph 25.3 mph N/A   Clear
5:15 PM 79.7 °F - 43.0 °F 27% 29.94 in 10.0 mi WSW 19.6 mph 25.3 mph N/A   Clear
5:35 PM 79.0 °F - 41.0 °F 26% 29.95 in 10.0 mi WSW 15.0 mph 24.2 mph N/A   Clear
5:55 PM 78.1 °F - 40.3 °F 26% 29.95 in 10.0 mi WSW 19.6 mph 24.2 mph N/A   Clear
6:15 PM 76.6 °F - 46.0 °F 34% 29.95 in 10.0 mi West 17.3 mph 20.7 mph N/A   Clear
6:35 PM 74.5 °F - 48.6 °F 40% 29.95 in 10.0 mi West 12.7 mph - N/A   Clear
6:55 PM 73.4 °F - 48.4 °F 41% 29.96 in 10.0 mi West 10.4 mph - N/A   Clear
7:15 PM 72.3 °F - 48.6 °F 43% 29.97 in 10.0 mi West 9.2 mph - N/A   Clear
7:35 PM 71.1 °F - 48.2 °F 44% 29.98 in 10.0 mi West 11.5 mph - N/A   Clear
7:55 PM 70.7 °F - 50.9 °F 49% 29.99 in 10.0 mi West 12.7 mph - N/A   Clear
8:15 PM 69.1 °F - 51.3 °F 53% 30.00 in 10.0 mi West 9.2 mph - N/A   Clear
8:35 PM 68.2 °F - 51.8 °F 56% 30.00 in 10.0 mi WNW 10.4 mph - N/A   Clear
8:55 PM 67.1 °F - 51.8 °F 58% 30.01 in 10.0 mi WNW 9.2 mph - N/A   Clear
9:15 PM 65.7 °F - 51.8 °F 61% 30.01 in 10.0 mi WNW 8.1 mph - N/A   Clear
9:35 PM 64.9 °F - 51.1 °F 61% 30.02 in 10.0 mi WNW 5.8 mph - N/A   Clear
9:55 PM 64.4 °F - 51.1 °F 62% 30.03 in 10.0 mi West 8.1 mph - N/A   Mostly Cloudy
10:15 PM 65.3 °F - 50.9 °F 60% 30.03 in 10.0 mi West 8.1 mph - N/A   Overcast
10:35 PM 64.6 °F - 50.9 °F 61% 30.03 in 10.0 mi WNW 5.8 mph - N/A   Overcast
10:55 PM 64.4 °F - 51.4 °F 63% 30.03 in 10.0 mi West 6.9 mph - N/A   Overcast
11:15 PM 64.6 °F - 51.6 °F 63% 30.03 in 10.0 mi West 5.8 mph - N/A   Overcast
11:35 PM 64.6 °F - 51.6 °F 63% 30.03 in 10.0 mi West 6.9 mph - N/A   Overcast
11:55 PM 63.7 °F - 51.8 °F 65% 30.03 in 10.0 mi West 8.1 mph - N/A   Overcast